• In Germany
  • List of Countries
  • For 7 days
  • Water Temperature
  • Satellite Maps
  • Weather Map
  • Weather Widgets
  • user-avatar
    Login

    Hourly Weather Shusha

    Today, 25 May, Thursday

    Time Temperature Precipitation Wind Pressure Humidity
    00:00 +9°C° 0.1 mm 1 mps 658 mmHg 82%
    01:00 +8°C° 0 mm 1 mps 658 mmHg 82%
    02:00 +8°C° 0 mm 1 mps 658 mmHg 83%
    03:00 +7°C° 0 mm 1 mps 658 mmHg 84%
    04:00 +9°C° 0 mm 1 mps 658 mmHg 79%
    05:00 +10°C° 0 mm 1 mps 659 mmHg 74%
    06:00 +12°C° 0 mm 1 mps 660 mmHg 68%
    07:00 +14°C° 0 mm 1 mps 660 mmHg 62%
    08:00 +15°C° 0 mm 2 mps 661 mmHg 55%
    09:00 +17°C° 0 mm 2 mps 661 mmHg 49%
    10:00 +18°C° 0.1 mm 2 mps 661 mmHg 46%
    11:00 +19°C° 0.1 mm 3 mps 661 mmHg 44%
    12:00 +20°C° 0.1 mm 3 mps 661 mmHg 41%
    13:00 +20°C° 0.1 mm 3 mps 661 mmHg 41%
    14:00 +20°C° 0.1 mm 3 mps 661 mmHg 41%
    15:00 +21°C° 0.1 mm 3 mps 661 mmHg 41%
    16:00 +20°C° 0.1 mm 2 mps 661 mmHg 45%
    17:00 +19°C° 0.1 mm 2 mps 660 mmHg 50%
    18:00 +18°C° 0.1 mm 2 mps 660 mmHg 54%
    19:00 +16°C° 0 mm 2 mps 660 mmHg 61%
    20:00 +13°C° 0 mm 1 mps 660 mmHg 69%
    21:00 +11°C° 0 mm 1 mps 660 mmHg 76%
    22:00 +10°C° 0 mm 1 mps 660 mmHg 79%
    23:00 +9°C° 0 mm 1 mps 659 mmHg 81%

    Tomorrow, 26 May, Friday

    Time Temperature Precipitation Wind Pressure Humidity
    00:00 +9°C° 0 mm 1 mps 659 mmHg 84%
    01:00 +8°C° 0 mm 1 mps 659 mmHg 86%
    02:00 +8°C° 0 mm 1 mps 659 mmHg 88%
    03:00 +7°C° 0 mm 1 mps 659 mmHg 90%
    04:00 +9°C° 0 mm 1 mps 659 mmHg 85%
    05:00 +11°C° 0 mm 1 mps 660 mmHg 80%
    06:00 +11°C° 0 mm 0 mps 661 mmHg 76%
    07:00 +14°C° 0 mm 1 mps 661 mmHg 68%
    08:00 +16°C° 0 mm 1 mps 661 mmHg 61%
    09:00 +18°C° 0 mm 2 mps 662 mmHg 54%
    10:00 +19°C° 0 mm 2 mps 661 mmHg 51%
    11:00 +20°C° 0 mm 3 mps 661 mmHg 47%
    12:00 +21°C° 0 mm 3 mps 661 mmHg 44%
    13:00 +21°C° 0.1 mm 3 mps 661 mmHg 44%
    14:00 +22°C° 0.1 mm 3 mps 660 mmHg 43%
    15:00 +22°C° 0.1 mm 3 mps 660 mmHg 43%
    16:00 +21°C° 0 mm 2 mps 660 mmHg 49%
    17:00 +20°C° 0 mm 2 mps 659 mmHg 54%
    18:00 +19°C° 0 mm 2 mps 659 mmHg 60%
    19:00 +18°C° 0 mm 1 mps 659 mmHg 66%
    20:00 +15°C° 0 mm 1 mps 659 mmHg 73%
    21:00 +13°C° 0 mm 1 mps 659 mmHg 79%
    22:00 +12°C° 0 mm 1 mps 658 mmHg 82%
    23:00 +11°C° 0 mm 1 mps 658 mmHg 85%

    Day after tomorrow, 27 May, Saturday

    Time Temperature Precipitation Wind Pressure Humidity
    00:00 +10°C° 0 mm 1 mps 658 mmHg 88%
    01:00 +10°C° 0 mm 1 mps 658 mmHg 89%
    02:00 +10°C° 0 mm 1 mps 657 mmHg 89%
    03:00 +9°C° 0 mm 1 mps 657 mmHg 89%
    04:00 +11°C° 0 mm 1 mps 658 mmHg 85%
    05:00 +12°C° 0 mm 1 mps 658 mmHg 80%
    06:00 +14°C° 0 mm 1 mps 659 mmHg 75%
    07:00 +16°C° 0 mm 1 mps 659 mmHg 68%
    08:00 +18°C° 0 mm 1 mps 659 mmHg 60%
    09:00 +19°C° 0 mm 2 mps 660 mmHg 52%
    10:00 +21°C° 0.3 mm 2 mps 659 mmHg 50%
    11:00 +22°C° 0.3 mm 3 mps 659 mmHg 47%
    12:00 +24°C° 0.3 mm 3 mps 659 mmHg 44%
    13:00 +24°C° 0.5 mm 3 mps 658 mmHg 44%
    14:00 +24°C° 0.5 mm 3 mps 658 mmHg 44%
    15:00 +24°C° 0.5 mm 3 mps 657 mmHg 44%
    16:00 +22°C° 0.7 mm 3 mps 657 mmHg 49%
    17:00 +21°C° 0.7 mm 2 mps 657 mmHg 55%
    18:00 +20°C° 0.7 mm 2 mps 656 mmHg 60%
    19:00 +18°C° 0.5 mm 2 mps 656 mmHg 68%
    20:00 +15°C° 0.5 mm 1 mps 656 mmHg 76%
    21:00 +13°C° 0.5 mm 1 mps 656 mmHg 84%
    22:00 +13°C° 0 mm 1 mps 656 mmHg 84%
    23:00 +12°C° 0 mm 1 mps 656 mmHg 84%

    28 May, Sunday

    Time Temperature Precipitation Wind Pressure Humidity
    00:00 +12°C° 0 mm 1 mps 656 mmHg 84%
    01:00 +12°C° 0 mm 1 mps 656 mmHg 83%
    02:00 +12°C° 0 mm 1 mps 656 mmHg 82%
    03:00 +12°C° 0 mm 1 mps 656 mmHg 81%
    04:00 +13°C° 0 mm 2 mps 657 mmHg 76%
    05:00 +14°C° 0 mm 2 mps 657 mmHg 70%
    06:00 +14°C° 0 mm 2 mps 658 mmHg 65%
    07:00 +17°C° 0 mm 2 mps 658 mmHg 56%
    08:00 +19°C° 0 mm 2 mps 659 mmHg 46%
    09:00 +23°C° 0 mm 2 mps 660 mmHg 36%
    10:00 +24°C° 0 mm 2 mps 659 mmHg 34%
    11:00 +25°C° 0 mm 3 mps 659 mmHg 31%
    12:00 +26°C° 0 mm 3 mps 659 mmHg 28%
    13:00 +27°C° 0 mm 3 mps 659 mmHg 28%
    14:00 +27°C° 0 mm 3 mps 659 mmHg 28%
    15:00 +27°C° 0 mm 3 mps 658 mmHg 28%
    16:00 +26°C° 0 mm 3 mps 658 mmHg 32%
    17:00 +25°C° 0 mm 3 mps 658 mmHg 37%
    18:00 +23°C° 0 mm 2 mps 658 mmHg 42%
    19:00 +19°C° 0 mm 2 mps 658 mmHg 49%
    20:00 +17°C° 0 mm 2 mps 658 mmHg 57%
    21:00 +14°C° 0 mm 1 mps 658 mmHg 65%
    22:00 +13°C° 0.2 mm 1 mps 658 mmHg 67%
    23:00 +12°C° 0.2 mm 1 mps 659 mmHg 69%

    29 May, Monday

    Time Temperature Precipitation Wind Pressure Humidity
    00:00 +11°C° 0.2 mm 1 mps 659 mmHg 71%
    01:00 +11°C° 0 mm 1 mps 659 mmHg 73%
    02:00 +11°C° 0 mm 1 mps 659 mmHg 75%
    03:00 +10°C° 0 mm 1 mps 659 mmHg 77%
    04:00 +12°C° 0 mm 1 mps 660 mmHg 74%
    05:00 +13°C° 0 mm 1 mps 661 mmHg 70%
    06:00 +14°C° 0 mm 1 mps 662 mmHg 67%
    07:00 +16°C° 0 mm 2 mps 662 mmHg 61%
    08:00 +17°C° 0 mm 2 mps 663 mmHg 56%
    09:00 +19°C° 0 mm 3 mps 663 mmHg 50%
    10:00 +19°C° 0.2 mm 4 mps 663 mmHg 51%
    11:00 +20°C° 0.2 mm 4 mps 663 mmHg 52%
    12:00 +20°C° 0.2 mm 5 mps 663 mmHg 53%
    13:00 +20°C° 0.4 mm 5 mps 662 mmHg 55%
    14:00 +19°C° 0.4 mm 4 mps 662 mmHg 58%
    15:00 +19°C° 0.4 mm 4 mps 662 mmHg 61%
    16:00 +18°C° 0.4 mm 4 mps 662 mmHg 65%
    17:00 +17°C° 0.4 mm 4 mps 662 mmHg 69%
    18:00 +16°C° 0.4 mm 3 mps 662 mmHg 73%
    19:00 +13°C° 0.3 mm 3 mps 662 mmHg 78%
    20:00 +13°C° 0.3 mm 2 mps 662 mmHg 83%
    21:00 +10°C° 0.3 mm 2 mps 662 mmHg 88%
    22:00 +9°C° 0.1 mm 2 mps 662 mmHg 88%
    23:00 +10°C° 0.1 mm 1 mps 662 mmHg 89%

    30 May, Tuesday

    Time Temperature Precipitation Wind Pressure Humidity
    00:00 +9°C° 0.1 mm 1 mps 661 mmHg 89%
    01:00 +9°C° 0 mm 1 mps 661 mmHg 90%
    02:00 +9°C° 0 mm 1 mps 661 mmHg 90%
    03:00 +8°C° 0 mm 1 mps 661 mmHg 90%
    04:00 +9°C° 0 mm 1 mps 661 mmHg 87%
    05:00 +10°C° 0 mm 1 mps 661 mmHg 84%
    06:00 +11°C° 0 mm 1 mps 661 mmHg 81%
    07:00 +13°C° 0 mm 1 mps 661 mmHg 75%
    08:00 +14°C° 0 mm 1 mps 661 mmHg 68%
    09:00 +16°C° 0 mm 2 mps 662 mmHg 62%
    10:00 +17°C° 0 mm 2 mps 661 mmHg 57%
    11:00 +19°C° 0 mm 2 mps 661 mmHg 52%
    12:00 +20°C° 0 mm 3 mps 661 mmHg 48%
    13:00 +21°C° 0 mm 3 mps 660 mmHg 47%
    14:00 +21°C° 0 mm 3 mps 660 mmHg 46%
    15:00 +22°C° 0 mm 3 mps 660 mmHg 45%
    16:00 +21°C° 0.1 mm 2 mps 659 mmHg 48%
    17:00 +20°C° 0.1 mm 2 mps 659 mmHg 52%
    18:00 +21°C° 0.1 mm 1 mps 659 mmHg 56%
    19:00 +19°C° 0.1 mm 1 mps 659 mmHg 62%
    20:00 +15°C° 0.1 mm 1 mps 658 mmHg 69%
    21:00 +13°C° 0.1 mm 1 mps 658 mmHg 76%
    22:00 +13°C° 0 mm 2 mps 658 mmHg 75%
    23:00 +13°C° 0 mm 2 mps 658 mmHg 73%
    Show more